Bluffton, MN

8:47 AM CST on December 04, 2016 (GMT -0600)
Wadena Municipal

Weather History for KADC - December, 2013

Change the Weather History Date:

Thursday, December 19, 2013

  Actual Average Record
Temperature  
Mean Temperature 3 °F -  
Max Temperature 8 °F 20 °F 42 °F (1976)
Min Temperature -2 °F 0 °F -40 °F (1983)
Degree Days  
Heating Degree Days 62    
Moisture  
Dew Point -2 °F    
Average Humidity 81    
Maximum Humidity 92    
Minimum Humidity 72    
Precipitation  
Precipitation 0.01 in - - ()
Sea Level Pressure  
Sea Level Pressure 30.05 in    
Wind  
Wind Speed 10 mph (NNE)    
Max Wind Speed 20 mph    
Max Gust Speed 25 mph    
Visibility 8 miles    
Events Snow    
Averages and records for this station are not official NWS values.
T = Trace of Precipitation, MM = Missing Value Source: NWS Daily Summary

Daily Weather History Graph

Daily Weather History Graph

Search for Another Location

Airport or City:

Trip Planner

Search our weather history database for the weather conditions in past years. The results will help you decide how hot, cold, wet, or windy it might be!

Date:

Astronomy

Dec. 19, 2013 Rise Set
Actual Time 8:00 AM CST 4:35 PM CST
Civil Twilight 7:25 AM CST 5:10 PM CST
Nautical Twilight 6:47 AM CST 5:49 PM CST
Astronomical Twilight 6:10 AM CST 6:25 PM CST
Moon 7:09 PM CST (12/19) 9:13 AM CST (12/19)
Length of Visible Light 9h 45m
Length of Day
8h 35m
Waning Gibbous, 95% of the Moon is Illuminated
Dec 19
Waning Gibbous
Dec 25
Last Quarter
Jan 1
New
Jan 7
First Quarter
Jan 15
Full

Hourly Weather History & Observations

Time (CST) Temp. Windchill Dew Point Humidity Pressure Visibility Wind Dir Wind Speed Gust Speed Precip Events Conditions
12:15 AM 8.6 °F -5.5 °F 6.8 °F 92% 29.88 in 10.0 mi NW 10.4 mph - N/A Snow Light Snow
12:35 AM 8.6 °F -6.3 °F 5.0 °F 85% 29.89 in 10.0 mi NW 11.5 mph - N/A Snow Light Snow
12:52 AM 8.6 °F -5.5 °F 3.2 °F 79% 29.89 in 10.0 mi NW 10.4 mph - N/A Snow Light Snow
1:15 AM 8.6 °F -6.3 °F 3.2 °F 79% 29.90 in 7.0 mi NW 11.5 mph - N/A Snow Light Snow
1:35 AM 8.6 °F -4.7 °F 3.2 °F 79% 29.91 in 10.0 mi NW 9.2 mph - N/A Snow Light Snow
1:53 AM 6.8 °F -5.9 °F 3.2 °F 85% 29.92 in 10.0 mi NW 8.1 mph - N/A Snow Light Snow
2:15 AM 6.8 °F -7.8 °F 3.2 °F 85% 29.92 in 10.0 mi NW 10.4 mph - N/A Snow Light Snow
2:34 AM 6.8 °F -10.0 °F 3.2 °F 85% 29.93 in 7.0 mi NNW 13.8 mph - N/A Snow Light Snow
2:53 AM 6.8 °F -11.8 °F 3.2 °F 85% 29.94 in 10.0 mi NNW 17.3 mph 21.9 mph N/A   Overcast
3:15 AM 6.8 °F -10.7 °F 1.4 °F 79% 29.96 in 10.0 mi NNW 15.0 mph - N/A   Overcast
3:35 AM 6.8 °F -11.3 °F 1.4 °F 79% 29.96 in 10.0 mi North 16.1 mph - N/A Snow Light Snow
3:53 AM 6.8 °F -12.9 °F 1.4 °F 79% 29.96 in 7.0 mi North 19.6 mph 25.3 mph N/A Snow Light Snow
4:15 AM 5.0 °F -13.6 °F 1.4 °F 85% 29.97 in 10.0 mi North 16.1 mph 21.9 mph N/A   Overcast
4:35 AM 3.2 °F -15.3 °F -0.4 °F 85% 29.98 in 10.0 mi North 15.0 mph - N/A   Scattered Clouds
4:52 AM 3.2 °F -11.3 °F -0.4 °F 85% 30.00 in 10.0 mi North 9.2 mph - N/A   Clear
5:14 AM 1.4 °F -16.9 °F -2.2 °F 85% 30.01 in 10.0 mi North 13.8 mph 18.4 mph N/A   Clear
5:35 AM 1.4 °F -15.3 °F -2.2 °F 85% 30.01 in 10.0 mi North 11.5 mph - N/A   Clear
5:53 AM 1.4 °F -11.3 °F -4.0 °F 78% 30.03 in 10.0 mi North 6.9 mph - N/A   Clear
6:15 AM -0.4 °F -16.7 °F -5.8 °F 78% 30.02 in 10.0 mi North 10.4 mph - N/A   Clear
6:34 AM -0.4 °F -16.7 °F -5.8 °F 78% 30.03 in 10.0 mi North 10.4 mph - N/A   Clear
6:53 AM -2.2 °F -18.0 °F -5.8 °F 85% 30.04 in 10.0 mi North 9.2 mph - N/A   Clear
7:14 AM -2.2 °F -16.8 °F -5.8 °F 85% 30.04 in 10.0 mi North 8.1 mph - N/A   Clear
7:35 AM -2.2 °F -18.9 °F -5.8 °F 85% 30.03 in 10.0 mi NNE 10.4 mph - N/A   Clear
7:53 AM -2.2 °F -19.9 °F -7.6 °F 78% 30.03 in 10.0 mi NNE 11.5 mph 16.1 mph N/A   Clear
8:15 AM -2.2 °F -18.9 °F -7.6 °F 78% 30.02 in 10.0 mi NNE 10.4 mph - N/A   Clear
8:34 AM -2.2 °F -18.9 °F -7.6 °F 78% 30.04 in 10.0 mi NNE 10.4 mph 16.1 mph N/A   Clear
8:53 AM -2.2 °F -15.6 °F -7.6 °F 78% 30.06 in 10.0 mi NNE 6.9 mph - N/A   Scattered Clouds
9:15 AM -0.4 °F -13.4 °F -5.8 °F 78% 30.08 in 10.0 mi NE 6.9 mph - N/A   Scattered Clouds
9:35 AM -0.4 °F -13.4 °F -5.8 °F 78% 30.10 in 10.0 mi NE 6.9 mph - N/A   Scattered Clouds
9:52 AM -0.4 °F -14.7 °F -5.8 °F 78% 30.10 in 10.0 mi NE 8.1 mph - N/A   Mostly Cloudy
10:14 AM -0.4 °F -14.7 °F -5.8 °F 78% 30.12 in 10.0 mi NE 8.1 mph - N/A   Mostly Cloudy
10:34 AM 1.4 °F -11.3 °F -5.8 °F 72% 30.13 in 10.0 mi NNE 6.9 mph - N/A   Mostly Cloudy
10:53 AM 1.4 °F -13.5 °F -4.0 °F 78% 30.12 in 10.0 mi NE 9.2 mph - N/A   Overcast
11:15 AM 1.4 °F -13.5 °F -4.0 °F 78% 30.11 in 10.0 mi NNE 9.2 mph - N/A   Mostly Cloudy
11:34 AM 1.4 °F -14.5 °F -4.0 °F 78% 30.10 in 10.0 mi NNE 10.4 mph - N/A   Scattered Clouds
11:53 AM 3.2 °F -11.3 °F -4.0 °F 72% 30.09 in 10.0 mi NE 9.2 mph - N/A   Scattered Clouds
12:15 PM 3.2 °F -12.2 °F -4.0 °F 72% 30.09 in 10.0 mi NNE 10.4 mph - N/A   Overcast
12:35 PM 3.2 °F -12.2 °F -2.2 °F 78% 30.08 in 10.0 mi NNE 10.4 mph - N/A   Scattered Clouds
12:53 PM 3.2 °F -10.3 °F -2.2 °F 78% 30.07 in 10.0 mi North 8.1 mph - N/A   Scattered Clouds
1:15 PM 3.2 °F -10.3 °F -2.2 °F 78% 30.07 in 10.0 mi North 8.1 mph - N/A   Overcast
1:35 PM 3.2 °F -11.3 °F -2.2 °F 78% 30.07 in 10.0 mi North 9.2 mph - N/A   Mostly Cloudy
1:53 PM 3.2 °F -11.3 °F -2.2 °F 78% 30.07 in 10.0 mi North 9.2 mph - N/A   Overcast
2:15 PM 3.2 °F -13.1 °F -2.2 °F 78% 30.08 in 10.0 mi North 11.5 mph - N/A   Scattered Clouds
2:35 PM 3.2 °F -12.2 °F -2.2 °F 78% 30.08 in 10.0 mi North 10.4 mph - N/A   Scattered Clouds
2:53 PM 3.2 °F -12.2 °F -2.2 °F 78% 30.09 in 10.0 mi NNE 10.4 mph - N/A   Overcast
3:15 PM 3.2 °F -10.3 °F -2.2 °F 78% 30.09 in 10.0 mi NNE 8.1 mph - N/A   Overcast
3:34 PM 3.2 °F -12.2 °F -2.2 °F 78% 30.09 in 10.0 mi North 10.4 mph - N/A   Overcast
3:53 PM 3.2 °F -10.3 °F -2.2 °F 78% 30.09 in 10.0 mi NNE 8.1 mph - N/A   Overcast
4:15 PM 3.2 °F -10.3 °F -2.2 °F 78% 30.10 in 10.0 mi North 8.1 mph - N/A   Overcast
4:34 PM 3.2 °F -9.1 °F -2.2 °F 78% 30.09 in 10.0 mi NNE 6.9 mph - N/A   Overcast
4:53 PM 3.2 °F -9.1 °F -2.2 °F 78% 30.08 in 10.0 mi NNE 6.9 mph - N/A   Overcast
5:15 PM 5.0 °F -10.0 °F -2.2 °F 72% 30.09 in 10.0 mi NNE 10.4 mph - N/A   Overcast
5:35 PM 5.0 °F -10.0 °F -2.2 °F 72% 30.10 in 10.0 mi North 10.4 mph - N/A   Overcast
5:53 PM 5.0 °F -8.1 °F -2.2 °F 72% 30.10 in 10.0 mi NNE 8.1 mph - N/A   Overcast
6:15 PM 5.0 °F -9.1 °F -2.2 °F 72% 30.11 in 4.0 mi NNE 9.2 mph - N/A Snow Light Snow
6:35 PM 3.2 °F -11.3 °F -0.4 °F 85% 30.11 in 2.0 mi NNE 9.2 mph - N/A Snow Light Snow
6:53 PM 3.2 °F -12.2 °F -0.4 °F 85% 30.10 in 3.0 mi NNE 10.4 mph - N/A Snow Light Snow
7:15 PM 3.2 °F -13.1 °F -0.4 °F 85% 30.10 in 2.0 mi NNE 11.5 mph - N/A Snow Light Snow
7:35 PM 3.2 °F -11.3 °F -0.4 °F 85% 30.10 in 2.5 mi NNE 9.2 mph - N/A Snow Light Snow
7:52 PM 3.2 °F -11.3 °F -0.4 °F 85% 30.10 in 2.5 mi NNE 9.2 mph - N/A Snow Light Snow
8:15 PM 3.2 °F -10.3 °F -0.4 °F 85% 30.09 in 4.0 mi NE 8.1 mph - N/A Snow Light Snow
8:35 PM 3.2 °F -10.3 °F -0.4 °F 85% 30.09 in 5.0 mi NNE 8.1 mph - N/A Snow Light Snow
8:52 PM 3.2 °F -9.1 °F -0.4 °F 85% 30.09 in 4.0 mi NNE 6.9 mph - N/A Snow Light Snow
9:15 PM 3.2 °F -7.8 °F -0.4 °F 85% 30.10 in 2.5 mi NE 5.8 mph - N/A Snow Light Snow
9:35 PM 3.2 °F -9.1 °F -0.4 °F 85% 30.10 in 5.0 mi NNE 6.9 mph - N/A Snow Light Snow
9:52 PM 3.2 °F -6.2 °F -0.4 °F 85% 30.11 in 2.5 mi NNE 4.6 mph - N/A Snow Light Snow
10:14 PM 3.2 °F -6.2 °F -0.4 °F 85% 30.10 in 2.5 mi NNE 4.6 mph - 0.01 in Snow Light Snow
10:35 PM 3.2 °F -7.8 °F -0.4 °F 85% 30.10 in 3.0 mi North 5.8 mph - 0.01 in Snow Light Snow
10:53 PM 3.2 °F -7.8 °F -0.4 °F 85% 30.10 in 3.0 mi North 5.8 mph - 0.01 in Snow Light Snow
11:15 PM 3.2 °F -4.2 °F -0.4 °F 85% 30.08 in 4.0 mi NE 3.5 mph - N/A Snow Light Snow
11:35 PM 3.2 °F -6.2 °F -0.4 °F 85% 30.07 in 5.0 mi ENE 4.6 mph - N/A Snow Light Snow
11:53 PM 3.2 °F -6.2 °F -0.4 °F 85% 30.07 in 10.0 mi NE 4.6 mph - N/A Snow Light Snow